This demonstration page uses our WeatherBlox Daily Observations layout. Learn more.

Left ArrowRight Arrow

Hourly Observations for May 10, 2016

Temp ( °F °C ) Dew Point ( °F °C ) Humidity (%) Winds ( mph kmh ) Pressure ( in mb ) Visibility ( mi km ) Precip ( " mm )
12:51 am 00:51 Clear 57 13.9 27 -2.8 32 32 NNW 5 7 29.82 1010 10 16 0.00 0.00
1:51 am 01:51 Clear 58 14.4 28 -2.2 32 32 NNW 3 6 29.81 1009 10 16 0.00 0.00
2:51 am 02:51 Clear 56 13.3 29 -1.7 36 36 SSE 6 9 29.83 1010 10 16 0.00 0.00
3:51 am 03:51 Clear 53 11.7 27 -2.8 37 37 SE 5 7 29.84 1011 10 16 0.00 0.00
4:51 am 04:51 Clear 52 11.1 27 -2.8 38 38 E 7 11 29.85 1011 10 16 0.00 0.00
5:51 am 05:51 Sunny 52 11.1 27 -2.8 38 38 E 3 6 29.88 1012 10 16 0.00 0.00
6:51 am 06:51 Sunny 57 13.9 29 -1.7 34 34 Calm 29.90 1012 10 16 0.00 0.00
7:51 am 07:51 Sunny 63 17.2 31 -0.6 30 30 SSE 5 7 29.90 1013 10 16 0.00 0.00
8:51 am 08:51 Sunny 69 20.6 32 0 25 25 VRB 3 6 29.89 1012 10 16 0.00 0.00
9:51 am 09:51 Sunny 74 23.3 33 0.6 22 22 WSW 3 6 29.88 1012 10 16 0.00 0.00
10:51 am 10:51 Sunny 77 25 32 0 19 19 VRB 6 9 29.88 1012 10 16 0.00 0.00
11:51 am 11:51 Sunny 80 26.7 32 0 17 17 WNW 7 11 29.86 1011 10 16 0.00 0.00
12:51 pm 12:51 Sunny 82 27.8 32 0 16 16 undefined N/A 29.83 1010 10 16 0.00 0.00
1:51 pm 13:51 Sunny 85 29.4 31 -0.6 14 14 W 8 13 29.80 1009 10 16 0.00 0.00
2:51 pm 14:51 Sunny 85 29.4 30 -1.1 14 14 VRB 5 7 29.79 1009 10 16 0.00 0.00
3:51 pm 15:51 Sunny 86 30 28 -2.2 12 12 VRB 7 11 29.76 1008 10 16 0.00 0.00
4:51 pm 16:51 Sunny 87 30.6 26 -3.3 11 11 WNW 9 15 29.75 1008 10 16 0.00 0.00
5:51 pm 17:51 Sunny 86 30 28 -2.2 12 12 NW 14 22 29.75 1008 10 16 0.00 0.00
6:51 pm 18:51 Sunny 82 27.8 28 -2.2 14 14 NW 16 26 29.76 1008 10 16 0.00 0.00
7:51 pm 19:51 Clear 79 26.1 29 -1.7 16 16 NW 16 26 29.78 1009 10 16 0.00 0.00
8:51 pm 20:51 Clear 76 24.4 29 -1.7 18 18 NW 14 22 29.80 1009 10 16 0.00 0.00
9:51 pm 21:51 Clear 72 22.2 29 -1.7 20 20 NW 7 11 29.83 1010 10 16 0.00 0.00
10:51 pm 22:51 Clear 68 20 30 -1.1 24 24 WNW 9 15 29.84 1011 10 16 0.00 0.00
11:51 pm 23:51 Clear 67 19.4 28 -2.2 23 23 WNW 9 15 29.85 1011 10 16 0.00 0.00

Powered by AerisWeather